EW2781 Weather Reports


time (UTC)temp
F
wind
direction
speed
knots
gust
knots
rain 1hr
in
rain 24hr
in
rain mn
in
humidity
%
barometer
mb
20260906124546 80 11 0.0 2.6 0.00 0.00 0.00 84 1011.2
20260906123050 80 344 0.0 0.0 0.00 0.00 0.00 86 1011.2
20260906121551 77 12 0.0 0.9 0.00 0.00 0.00 91 1011.0
20260906120053 74 346 0.0 0.9 0.00 0.00 0.00 95 1011.0
20260906114552 73 297 0.0 0.0 0.00 0.00 0.00 96 1010.9
20260906113103 73 297 0.0 0.0 0.00 0.00 0.00 96 1010.6
20260906111507 73 76 0.0 0.9 0.00 0.00 0.00 97 1010.3
20260906110015 73 113 0.0 0.9 0.00 0.00 0.00 97 1010.3
20260906104522 74 295 0.0 1.7 0.00 0.00 0.00 97 1010.1
20260906103019 74 297 0.0 0.9 0.00 0.00 0.00 97 1009.9
20260906101522 75 307 0.0 1.7 0.00 0.00 0.00 98 1009.6
20260906100027 75 309 0.0 1.7 0.00 0.00 0.00 97 1009.3
20260906094606 76 298 0.0 2.6 0.00 0.00 0.00 97 1009.3
20260906093044 76 298 0.0 0.9 0.00 0.00 0.00 97 1009.1
20260906091548 76 271 0.0 0.0 0.00 0.00 0.00 97 1009.0
20260906090050 76 278 0.0 0.0 0.00 0.00 0.00 96 1009.0
20260906084552 76 273 0.0 0.0 0.00 0.00 0.00 96 1009.2
20260906083055 76 270 0.0 0.0 0.00 0.00 0.00 96 1009.1
20260906081559 76 271 0.0 0.0 0.00 0.00 0.00 95 1009.2
20260906080009 76 271 0.0 0.0 0.00 0.00 0.00 95 1009.2
20260906074523 77 269 0.0 0.0 0.00 0.00 0.00 94 1009.3
20260906073023 77 269 0.0 0.0 0.00 0.00 0.00 93 1009.7
20260906071526 77 269 0.0 0.0 0.00 0.00 0.00 93 1009.8
20260906070036 78 269 0.0 0.0 0.00 0.00 0.00 92 1009.9
20260906064539 78 269 0.0 0.0 0.00 0.00 0.00 92 1010.0
20260906063041 79 239 0.0 0.0 0.00 0.00 0.00 91 1010.1
20260906061544 79 314 0.0 1.7 0.00 0.00 0.00 91 1009.9
20260906060047 80 250 0.0 2.6 0.00 0.00 0.00 90 1010.0
20260906054551 81 266 0.9 5.2 0.00 0.00 0.00 90 1010.1
20260906053048 80 169 0.0 0.9 0.00 0.00 0.00 88 1010.4
20260906051555 79 311 0.0 0.0 0.00 0.00 0.00 86 1010.2
20260906050114 80 113 0.0 0.0 0.00 0.00 0.00 86 1010.0
20260906044507 80 113 0.0 3.5 0.00 0.00 0.00 85 1009.9
20260906043010 80 137 0.9 3.5 0.00 0.00 0.00 86 1010.4
20260906041509 80 53 0.9 3.5 0.00 0.00 0.00 87 1010.9
20260906040024 80 120 1.7 6.1 0.00 0.00 0.00 87 1011.2
20260906034545 80 166 0.9 3.5 0.00 0.00 0.00 89 1011.6
20260906033045 81 103 0.0 5.2 0.00 0.00 0.00 90 1011.4
20260906031550 82 82 0.9 4.3 0.00 0.00 0.00 92 1011.0
20260906030058 82 123 0.9 2.6 0.00 0.00 0.00 91 1010.5
20260906024604 82 83 0.9 6.1 0.00 0.00 0.00 90 1010.3
20260906023002 82 105 0.9 4.3 0.00 0.00 0.00 89 1010.5
20260906021514 82 204 0.9 3.5 0.00 0.00 0.00 90 1010.5
20260906020031 82 88 0.9 4.3 0.00 0.00 0.00 89 1010.5
20260906014533 82 139 0.9 3.5 0.00 0.00 0.00 89 1010.4
20260906013038 82 49 0.0 3.5 0.00 0.00 0.00 88 1010.5
20260906011547 82 121 0.0 2.6 0.00 0.00 0.00 87 1010.7
20260906010048 82 139 0.9 3.5 0.00 0.00 0.00 88 1009.9
20260906004554 81 78 0.0 3.5 0.00 0.00 0.00 87 1009.7
20260906003054 81 117 0.9 5.2 0.00 0.00 0.00 82 1010.5
20260906001607 81 64 0.0 4.3 0.00 0.00 0.00 82 1010.7
20260906000058 81 120 0.0 4.3 0.00 0.00 0.00 81 1010.5
20260905234601 82 64 1.7 8.7 0.00 0.00 0.00 77 1010.7
20260905233112 85 77 0.0 1.7 0.00 0.00 0.00 91 1010.2
20260905231506 85 70 0.0 3.5 0.00 0.00 0.00 90 1009.8
20260905230013 84 217 0.9 4.3 0.00 0.00 0.00 90 1009.9
20260905224517 85 142 0.9 3.5 0.00 0.00 0.00 90 1009.8
20260905223032 85 142 0.9 5.2 0.00 0.00 0.00 89 1009.3
20260905221537 86 40 0.0 5.2 0.00 0.00 0.00 88 1009.6
20260905220030 86 158 0.9 6.1 0.00 0.00 0.00 87 1009.0
20260905214541 86 101 0.9 4.3 0.00 0.00 0.00 87 1008.9
20260905213046 86 129 0.9 3.5 0.00 0.00 0.00 87 1009.4
20260905211550 87 131 0.9 4.3 0.00 0.00 0.00 86 1009.1
20260905210108 89 143 0.9 5.2 0.00 0.00 0.00 84 1009.4
20260905204546 89 142 0.0 4.3 0.00 0.00 0.00 85 1009.3
20260905203050 89 34 0.9 4.3 0.00 0.00 0.00 85 1009.2
20260905201600 90 141 0.0 2.6 0.00 0.00 0.00 83 1009.1
20260905200123 89 124 1.7 5.2 0.00 0.00 0.00 83 1009.2
20260905194506 90 8 0.9 6.1 0.00 0.00 0.00 84 1009.5
20260905193009 90 147 0.9 5.2 0.00 0.00 0.00 84 1009.7
20260905191513 90 88 0.0 5.2 0.00 0.00 0.00 81 1010.1
20260905190025 90 84 1.7 5.2 0.00 0.00 0.00 82 1010.3
20260905184538 90 79 0.9 4.3 0.00 0.00 0.00 82 1010.7
20260905183040 90 117 1.7 4.3 0.00 0.00 0.00 81 1010.9
20260905181544 91 131 0.0 3.5 0.00 0.00 0.00 82 1011.0
20260905180046 91 193 0.0 5.2 0.00 0.00 0.00 81 1011.1
20260905174549 90 126 0.9 6.1 0.00 0.00 0.00 79 1011.2
20260905173051 90 105 1.7 4.3 0.00 0.00 0.00 78 1011.2
20260905171605 92 89 0.9 3.5 0.00 0.00 0.00 77 1011.4
20260905170058 93 101 0.9 4.3 0.00 0.00 0.00 73 1011.6
20260905164557 93 355 0.0 1.7 0.00 0.00 0.00 71 1011.8
20260905163101 92 127 0.9 3.5 0.00 0.00 0.00 72 1012.0
20260905161611 93 184 0.0 1.7 0.00 0.00 0.00 73 1012.2
20260905160002 91 296 0.0 3.5 0.00 0.00 0.00 74 1012.4
20260905154521 91 257 0.0 1.7 0.00 0.00 0.00 75 1012.6
20260905153015 89 219 0.0 3.5 0.00 0.00 0.00 77 1012.8
20260905151516 89 214 0.0 3.5 0.00 0.00 0.00 78 1012.9
20260905150027 89 226 0.0 2.6 0.00 0.00 0.00 80 1013.0
20260905144537 88 232 0.0 4.3 0.00 0.00 0.00 81 1013.1
20260905143029 87 309 0.0 4.3 0.00 0.00 0.00 82 1013.2
20260905141539 87 287 0.0 1.7 0.00 0.00 0.00 82 1013.3
20260905140043 87 240 0.0 1.7 0.00 0.00 0.00 83 1013.3
20260905134550 86 309 0.0 4.3 0.00 0.00 0.00 84 1013.3
20260905133045 85 77 0.0 4.3 0.00 0.00 0.00 86 1013.3
20260905131547 85 266 0.0 1.7 0.00 0.00 0.00 87 1013.2
20260905130051 84 197 0.0 4.3 0.00 0.00 0.00 89 1013.3